Location: Alafon
(8.4500°N, 4.2333°E)
Time: 17:21:47
(UTC+00:00)

Transit 2A - Pass Details

Date: 07 August 2021
Orbit: 595 x 964 km, 66.7° (Epoch: 18 September)

Event Time Altitude Azimuth Distance (km) Brightness Sun altitude
Rises 14:05:13 0° 350° (N) 3,487 9.6 55.8°
Reaches altitude 10° 14:07:45 10° 355° (N) 2,590 9.0 55.2°
Maximum altitude 14:13:38 50° 70° (ENE) 1,188 7.3 53.8°
Drops below altitude 10° 14:19:46 10° 144° (SE) 2,693 8.6 52.4°
Sets 14:22:25 0° 149° (SSE) 3,637 9.2 51.8°
